,,PA_Meas_PMT16A,,PR_Meas_QMR101_102,,RH_Meas_QMH101,,SR_Meas_QMS101,,TA_Meas_QMH101,,GenWind,,GenWind,
time,status,PA,status,PR,status,RH,status,SR,status,TA,status,DirAvg,status,SpdAvg,
2010-10-14, 00:00:04,VALID,917.545,VALID,0,VALID,92.6779,VALID,0,VALID,19.8783,VALID,39,VALID,0.967188,
2010-10-14, 00:01:04,VALID,917.528,VALID,0,VALID,92.7465,VALID,0,VALID,19.8378,VALID,38,VALID,1.36797,
2010-10-14, 00:02:04,VALID,917.561,VALID,0,VALID,92.6321,VALID,0,VALID,19.8573,VALID,26,VALID,1.90898,
2010-10-14, 00:03:04,VALID,917.584,VALID,0,VALID,92.5635,VALID,0.107441,VALID,19.8768,VALID,26,VALID,1.03594,
2010-10-14, 00:04:04,VALID,917.546,VALID,0,VALID,92.5406,VALID,0,VALID,19.8978,VALID,34,VALID,0.644531,
2010-10-14, 00:05:04,VALID,917.565,VALID,0,VALID,92.5483,VALID,0,VALID,19.8783,VALID,34,VALID,0.638672,
2010-10-14, 00:06:04,VALID,917.594,VALID,0,VALID,92.7007,VALID,0,VALID,19.8588,VALID,34,VALID,0.859375,
2010-10-14, 00:07:04,VALID,917.563,VALID,0,VALID,92.7998,VALID,0,VALID,19.8393,VALID,34,VALID,0.792578,
2010-10-14, 00:08:04,VALID,917.599,VALID,0,VALID,92.9218,VALID,0,VALID,19.8198,VALID,34,VALID,0.769141,
2010-10-14, 00:09:04,VALID,917.598,VALID,0,VALID,92.9981,VALID,0,VALID,19.7793,VALID,34,VALID,0.00195313,
2010-10-14, 00:10:04,VALID,917.561,VALID,0,VALID,93.0819,VALID,0,VALID,19.7613,VALID,34,VALID,0.04375,
2010-10-14, 00:11:04,VALID,917.542,VALID,0,VALID,93.0972,VALID,0,VALID,19.7613,VALID,34,VALID,0.00195313,
2010-10-14, 00:12:04,VALID,917.544,VALID,0,VALID,93.181,VALID,0,VALID,19.7613,VALID,35,VALID,0,
2010-10-14, 00:13:04,VALID,917.55,VALID,0,VALID,93.2268,VALID,0,VALID,19.7418,VALID,34,VALID,0,
2010-10-14, 00:14:04,VALID,917.53,VALID,0,VALID,93.2877,VALID,0,VALID,19.7208,VALID,34,VALID,0.00585938,
2010-10-14, 00:15:04,VALID,917.528,VALID,0,VALID,93.3564,VALID,0,VALID,19.7013,VALID,34,VALID,0.0808594,
2010-10-14, 00:16:04,VALID,917.495,VALID,0,VALID,93.3792,VALID,0,VALID,19.7208,VALID,34,VALID,0.210156,
2010-10-14, 00:17:04,VALID,917.477,VALID,0,VALID,93.4402,VALID,0,VALID,19.7223,VALID,35,VALID,0.389844,
2010-10-14, 00:18:04,VALID,917.465,VALID,0,VALID,93.5317,VALID,0,VALID,19.6833,VALID,34,VALID,0.306641,
2010-10-14, 00:19:04,VALID,917.453,VALID,0,VALID,93.7223,VALID,0,VALID,19.6638,VALID,35,VALID,0.407031,
2010-10-14, 00:20:04,VALID,917.401,VALID,0,VALID,93.646,VALID,0,VALID,19.6428,VALID,34,VALID,0.148438,
2010-10-14, 00:21:04,VALID,917.388,VALID,0,VALID,93.7528,VALID,0,VALID,19.6038,VALID,35,VALID,0.26875,
2010-10-14, 00:22:04,VALID,917.383,VALID,0,VALID,93.9205,VALID,0,VALID,19.5843,VALID,34,VALID,0.110547,
2010-10-14, 00:23:04,VALID,917.397,VALID,0,VALID,94.073,VALID,0,VALID,19.5858,VALID,35,VALID,0.384375,
2010-10-14, 00:24:04,VALID,917.364,VALID,0,VALID,94.1416,VALID,0.107441,VALID,19.5648,VALID,34,VALID,0.107031,
2010-10-14, 00:25:04,VALID,917.318,VALID,0,VALID,94.1721,VALID,0,VALID,19.5663,VALID,35,VALID,0.422266,
2010-10-14, 00:26:04,VALID,917.314,VALID,0,VALID,94.2483,VALID,0,VALID,19.5468,VALID,35,VALID,0.615625,
2010-10-14, 00:27:04,VALID,917.311,VALID,0,VALID,94.3474,VALID,0,VALID,19.5258,VALID,35,VALID,0.779688,
2010-10-14, 00:28:04,VALID,917.264,VALID,0,VALID,94.4389,VALID,0,VALID,19.5273,VALID,34,VALID,0.441406,
2010-10-14, 00:29:04,VALID,917.27,VALID,0,VALID,94.4541,VALID,0,VALID,19.4868,VALID,35,VALID,0.255469,
2010-10-14, 00:30:04,VALID,917.198,VALID,0,VALID,94.5685,VALID,0,VALID,19.4478,VALID,35,VALID,0.612109,
2010-10-14, 00:31:04,VALID,917.237,VALID,0,VALID,94.6828,VALID,0,VALID,19.4478,VALID,35,VALID,0.615234,
2010-10-14, 00:32:04,VALID,917.163,VALID,0,VALID,94.7591,VALID,0,VALID,19.4283,VALID,35,VALID,0.641406,
2010-10-14, 00:33:04,VALID,917.136,VALID,0,VALID,94.8353,VALID,0,VALID,19.4493,VALID,35,VALID,0.539063,
2010-10-14, 00:34:04,VALID,917.099,VALID,0,VALID,94.881,VALID,0,VALID,19.4298,VALID,34,VALID,0.864453,
2010-10-14, 00:35:04,VALID,917.071,VALID,0,VALID,94.9039,VALID,0,VALID,19.4103,VALID,35,VALID,0.867969,
2010-10-14, 00:36:04,VALID,917.042,VALID,0,VALID,94.9573,VALID,0,VALID,19.3698,VALID,35,VALID,0.750781,
2010-10-14, 00:37:04,VALID,917.013,VALID,0,VALID,95.0411,VALID,0,VALID,19.3713,VALID,35,VALID,0.483203,
2010-10-14, 00:38:04,VALID,917.039,VALID,0,VALID,95.1097,VALID,0,VALID,19.3713,VALID,34,VALID,0.542969,
2010-10-14, 00:39:04,VALID,917.015,VALID,0,VALID,95.1479,VALID,0,VALID,19.3503,VALID,34,VALID,0.822266,
2010-10-14, 00:40:04,VALID,917.044,VALID,0,VALID,95.1402,VALID,0,VALID,19.3518,VALID,35,VALID,0.258984,
2010-10-14, 00:41:04,VALID,916.958,VALID,0,VALID,95.2088,VALID,0,VALID,19.3503,VALID,35,VALID,0.507422,
2010-10-14, 00:42:04,VALID,916.957,VALID,0,VALID,95.2088,VALID,0,VALID,19.3503,VALID,35,VALID,0.376953,
2010-10-14, 00:43:04,VALID,917.004,VALID,0,VALID,95.2088,VALID,0,VALID,19.3503,VALID,35,VALID,0.427344,
2010-10-14, 00:44:04,VALID,916.959,VALID,0,VALID,95.1479,VALID,0,VALID,19.3503,VALID,35,VALID,0.35,
2010-10-14, 00:45:04,VALID,916.95,VALID,0,VALID,95.0792,VALID,0,VALID,19.3908,VALID,35,VALID,0.311719,
2010-10-14, 00:46:04,VALID,916.93,VALID,0,VALID,95.1402,VALID,0,VALID,19.3713,VALID,35,VALID,0.377734,
2010-10-14, 00:47:04,VALID,916.945,VALID,0,VALID,95.0869,VALID,0,VALID,19.3698,VALID,35,VALID,0.394531,
2010-10-14, 00:48:04,VALID,916.939,VALID,0,VALID,95.125,VALID,0,VALID,19.4103,VALID,35,VALID,0.0683594,
2010-10-14, 00:49:04,VALID,916.956,VALID,0,VALID,95.1783,VALID,0,VALID,19.4298,VALID,35,VALID,0.246094,
2010-10-14, 00:50:04,VALID,916.95,VALID,0,VALID,95.0716,VALID,0,VALID,19.4283,VALID,35,VALID,0.0476562,
2010-10-14, 00:51:04,VALID,916.929,VALID,0,VALID,95.003,VALID,0,VALID,19.4283,VALID,35,VALID,0.355469,
2010-10-14, 00:52:04,VALID,916.927,VALID,0,VALID,94.9573,VALID,0,VALID,19.4478,VALID,50,VALID,0.574609,
2010-10-14, 00:53:04,VALID,916.951,VALID,0,VALID,94.8887,VALID,0,VALID,19.4883,VALID,78,VALID,0.403516,
2010-10-14, 00:54:04,VALID,916.94,VALID,0,VALID,94.7057,VALID,0,VALID,19.4673,VALID,78,VALID,0.459375,
2010-10-14, 00:55:04,VALID,916.917,VALID,0,VALID,94.7057,VALID,0,VALID,19.4673,VALID,78,VALID,0.628125,
2010-10-14, 00:56:04,VALID,916.883,VALID,0,VALID,94.6905,VALID,0,VALID,19.4868,VALID,78,VALID,0.519922,
2010-10-14, 00:57:04,VALID,916.901,VALID,0,VALID,94.6447,VALID,0,VALID,19.4883,VALID,78,VALID,0.451953,
2010-10-14, 00:58:04,VALID,916.868,VALID,0,VALID,94.6828,VALID,0,VALID,19.4673,VALID,78,VALID,0.423047,
2010-10-14, 00:59:04,VALID,916.873,VALID,0,VALID,94.7209,VALID,0,VALID,19.4673,VALID,78,VALID,0.492578,
2010-10-14, 01:00:04,VALID,916.873,VALID,0,VALID,94.82,VALID,0,VALID,19.4673,VALID,77,VALID,0.6875,
2010-10-14, 01:01:04,VALID,916.875,VALID,0,VALID,94.8887,VALID,0.107441,VALID,19.4478,VALID,78,VALID,0.308203,
2010-10-14, 01:02:04,VALID,916.864,VALID,0,VALID,94.942,VALID,0,VALID,19.4283,VALID,69,VALID,0.825781,
2010-10-14, 01:03:04,VALID,916.864,VALID,0,VALID,95.0411,VALID,0,VALID,19.4478,VALID,31,VALID,0.803125,
2010-10-14, 01:04:04,VALID,916.871,VALID,0,VALID,95.1097,VALID,0,VALID,19.4493,VALID,31,VALID,1.05664,
2010-10-14, 01:05:04,VALID,916.862,VALID,0,VALID,95.0945,VALID,0,VALID,19.4283,VALID,31,VALID,0.462891,
2010-10-14, 01:06:04,VALID,916.806,VALID,0,VALID,95.125,VALID,0,VALID,19.4298,VALID,31,VALID,0.844922,
2010-10-14, 01:07:04,VALID,916.762,VALID,0,VALID,95.1936,VALID,0,VALID,19.4298,VALID,31,VALID,1.15469,
2010-10-14, 01:08:04,VALID,916.786,VALID,0,VALID,95.2851,VALID,0.107441,VALID,19.4088,VALID,97,VALID,0.798437,
2010-10-14, 01:09:04,VALID,916.773,VALID,0,VALID,95.1936,VALID,0,VALID,19.4283,VALID,97,VALID,0.471094,
2010-10-14, 01:10:04,VALID,916.813,VALID,0,VALID,95.1936,VALID,0,VALID,19.4283,VALID,96,VALID,0.497656,
2010-10-14, 01:11:04,VALID,916.772,VALID,0,VALID,95.1021,VALID,0,VALID,19.4283,VALID,96,VALID,0.290625,
2010-10-14, 01:12:04,VALID,916.73,VALID,0,VALID,95.1479,VALID,0,VALID,19.4283,VALID,96,VALID,0.739453,
2010-10-14, 01:13:04,VALID,916.736,VALID,0,VALID,95.1783,VALID,0,VALID,19.4088,VALID,24,VALID,0.587891,
2010-10-14, 01:14:04,VALID,916.724,VALID,0,VALID,95.247,VALID,0.107441,VALID,19.4088,VALID,20,VALID,0.770703,
2010-10-14, 01:15:04,VALID,916.713,VALID,0,VALID,95.3156,VALID,0,VALID,19.4088,VALID,19,VALID,1.48945,
2010-10-14, 01:16:04,VALID,916.665,VALID,0,VALID,95.3079,VALID,0,VALID,19.4283,VALID,29,VALID,1.675,
2010-10-14, 01:17:04,VALID,916.684,VALID,0,VALID,95.3232,VALID,0,VALID,19.4283,VALID,33,VALID,1.31602,
2010-10-14, 01:18:04,VALID,916.645,VALID,0,VALID,95.247,VALID,0,VALID,19.4673,VALID,39,VALID,2.00586,
2010-10-14, 01:19:04,VALID,916.649,VALID,0,VALID,95.1326,VALID,0,VALID,19.4673,VALID,342,VALID,0.635547,
2010-10-14, 01:20:04,VALID,916.632,VALID,0,VALID,95.0259,VALID,0,VALID,19.4868,VALID,343,VALID,0.628516,
2010-10-14, 01:21:04,VALID,916.638,VALID,0,VALID,94.9954,VALID,0,VALID,19.4673,VALID,343,VALID,0.103125,
2010-10-14, 01:22:04,VALID,916.622,VALID,0,VALID,95.0183,VALID,0.107441,VALID,19.4673,VALID,343,VALID,0.669922,
2010-10-14, 01:23:04,VALID,916.587,VALID,0,VALID,95.0106,VALID,0,VALID,19.4673,VALID,343,VALID,0.105859,
2010-10-14, 01:24:04,VALID,916.578,VALID,0,VALID,95.064,VALID,0,VALID,19.4478,VALID,343,VALID,0.359766,
2010-10-14, 01:25:04,VALID,916.518,VALID,0,VALID,95.0335,VALID,0,VALID,19.4883,VALID,343,VALID,0.578125,
2010-10-14, 01:26:04,VALID,916.548,VALID,0,VALID,94.9268,VALID,0,VALID,19.4868,VALID,343,VALID,0.583594,
2010-10-14, 01:27:04,VALID,916.54,VALID,0,VALID,94.7972,VALID,0,VALID,19.4868,VALID,343,VALID,0.259766,
2010-10-14, 01:28:04,VALID,916.532,VALID,0,VALID,94.7514,VALID,0,VALID,19.4883,VALID,343,VALID,0.33125,
2010-10-14, 01:29:04,VALID,916.532,VALID,0,VALID,94.7362,VALID,0,VALID,19.4478,VALID,343,VALID,0.502734,
2010-10-14, 01:30:04,VALID,916.546,VALID,0,VALID,94.7057,VALID,0,VALID,19.4688,VALID,343,VALID,0,
2010-10-14, 01:31:04,VALID,916.491,VALID,0,VALID,94.7362,VALID,0,VALID,19.4478,VALID,343,VALID,0.814062,
2010-10-14, 01:32:04,VALID,916.47,VALID,0,VALID,94.7438,VALID,0,VALID,19.4478,VALID,343,VALID,0.0722656,
2010-10-14, 01:33:04,VALID,916.422,VALID,0,VALID,94.7362,VALID,0,VALID,19.4283,VALID,343,VALID,0.00117188,
2010-10-14, 01:34:04,VALID,916.445,VALID,0,VALID,94.7819,VALID,0,VALID,19.4283,VALID,343,VALID,0.385547,
2010-10-14, 01:35:04,VALID,916.394,VALID,0,VALID,94.7743,VALID,0,VALID,19.4283,VALID,343,VALID,0.0265625,
2010-10-14, 01:36:04,VALID,916.357,VALID,0,VALID,94.6828,VALID,0,VALID,19.4103,VALID,343,VALID,0.630859,
2010-10-14, 01:37:04,VALID,916.309,VALID,0,VALID,94.6828,VALID,0,VALID,19.3908,VALID,343,VALID,1.04844,
2010-10-14, 01:38:04,VALID,916.32,VALID,0,VALID,94.7514,VALID,0,VALID,19.3518,VALID,23,VALID,0.699219,
2010-10-14, 01:39:04,VALID,916.287,VALID,0,VALID,94.82,VALID,0,VALID,19.3308,VALID,23,VALID,0.168359,
2010-10-14, 01:40:04,VALID,916.305,VALID,0,VALID,94.8353,VALID,0,VALID,19.3518,VALID,23,VALID,0.621875,
2010-10-14, 01:41:04,VALID,916.276,VALID,0,VALID,94.7286,VALID,0,VALID,19.3323,VALID,23,VALID,0.396875,
2010-10-14, 01:42:04,VALID,916.266,VALID,0,VALID,94.7286,VALID,0,VALID,19.3323,VALID,23,VALID,0.714844,
2010-10-14, 01:43:04,VALID,916.252,VALID,0,VALID,94.8277,VALID,0,VALID,19.3323,VALID,23,VALID,0.710547,
2010-10-14, 01:44:04,VALID,916.296,VALID,0,VALID,94.8658,VALID,0,VALID,19.3128,VALID,23,VALID,0.0878906,
2010-10-14, 01:45:04,VALID,916.235,VALID,0,VALID,95.0106,VALID,0,VALID,19.3128,VALID,23,VALID,0.619922,
2010-10-14, 01:46:04,VALID,916.263,VALID,0,VALID,95.003,VALID,0,VALID,19.2723,VALID,10,VALID,1.52031,
2010-10-14, 01:47:04,VALID,916.24,VALID,0,VALID,95.125,VALID,0,VALID,19.3128,VALID,25,VALID,1.38086,
2010-10-14, 01:48:04,VALID,916.257,VALID,0,VALID,94.9878,VALID,0,VALID,19.3323,VALID,25,VALID,0.55,
2010-10-14, 01:49:04,VALID,916.235,VALID,0,VALID,94.881,VALID,0,VALID,19.3518,VALID,25,VALID,0.461719,
2010-10-14, 01:50:04,VALID,916.209,VALID,0,VALID,94.8429,VALID,0,VALID,19.3113,VALID,25,VALID,1.56445,
2010-10-14, 01:51:04,VALID,916.252,VALID,0,VALID,95.125,VALID,0,VALID,19.3323,VALID,25,VALID,1.04961,
2010-10-14, 01:52:04,VALID,916.214,VALID,0,VALID,95.2165,VALID,0,VALID,19.3323,VALID,25,VALID,0.531641,
2010-10-14, 01:53:04,VALID,916.208,VALID,0,VALID,95.2775,VALID,0,VALID,19.3323,VALID,25,VALID,0.750781,
2010-10-14, 01:54:04,VALID,916.252,VALID,0,VALID,95.2851,VALID,0,VALID,19.3323,VALID,25,VALID,0.569141,
2010-10-14, 01:55:04,VALID,916.22,VALID,0,VALID,95.3384,VALID,0,VALID,19.3308,VALID,25,VALID,0.828516,
2010-10-14, 01:56:04,VALID,916.235,VALID,0,VALID,95.3689,VALID,0,VALID,19.3308,VALID,25,VALID,1.01875,
2010-10-14, 01:57:04,VALID,916.249,VALID,0,VALID,95.4375,VALID,0,VALID,19.3128,VALID,9,VALID,1.0168,
2010-10-14, 01:58:04,VALID,916.268,VALID,0,VALID,95.4985,VALID,0,VALID,19.3128,VALID,350,VALID,0.882031,
2010-10-14, 01:59:05,VALID,916.273,VALID,0,VALID,95.4604,VALID,0,VALID,19.3518,VALID,350,VALID,1.09922,
2010-10-14, 02:00:05,VALID,916.286,VALID,0,VALID,95.3232,VALID,0,VALID,19.3713,VALID,350,VALID,0.505469,
2010-10-14, 02:01:05,VALID,916.291,VALID,0,VALID,95.186,VALID,0,VALID,19.3908,VALID,350,VALID,0.437109,
2010-10-14, 02:02:05,VALID,916.306,VALID,0,VALID,95.0945,VALID,0,VALID,19.3518,VALID,350,VALID,0.83125,
2010-10-14, 02:03:05,VALID,916.308,VALID,0,VALID,95.1326,VALID,0,VALID,19.3503,VALID,350,VALID,0.883984,
2010-10-14, 02:04:05,VALID,916.272,VALID,0,VALID,95.2165,VALID,0,VALID,19.3713,VALID,350,VALID,0.626953,
2010-10-14, 02:05:05,VALID,916.275,VALID,0,VALID,95.2546,VALID,0,VALID,19.3323,VALID,350,VALID,0.499609,
2010-10-14, 02:06:05,VALID,916.224,VALID,0,VALID,95.3537,VALID,0,VALID,19.3128,VALID,350,VALID,1.34531,
2010-10-14, 02:07:05,VALID,916.268,VALID,0,VALID,95.4147,VALID,0,VALID,19.3113,VALID,350,VALID,1.2043,
2010-10-14, 02:08:05,VALID,916.298,VALID,0,VALID,95.2241,VALID,0,VALID,19.3503,VALID,350,VALID,0.208203,
2010-10-14, 02:09:05,VALID,916.248,VALID,0,VALID,95.1555,VALID,0,VALID,19.3308,VALID,350,VALID,0.501172,
2010-10-14, 02:10:05,VALID,916.256,VALID,0,VALID,95.0792,VALID,0,VALID,19.3908,VALID,38,VALID,1.37773,
2010-10-14, 02:11:05,VALID,916.269,VALID,0,VALID,94.7896,VALID,0,VALID,19.3698,VALID,41,VALID,1.30313,
2010-10-14, 02:12:05,VALID,916.309,VALID,0,VALID,94.5685,VALID,0,VALID,19.4298,VALID,50,VALID,0.248828,
2010-10-14, 02:13:05,VALID,916.302,VALID,0,VALID,94.4236,VALID,0,VALID,19.4298,VALID,50,VALID,0.730078,
2010-10-14, 02:14:05,VALID,916.29,VALID,0,VALID,94.3474,VALID,0,VALID,19.4298,VALID,50,VALID,0.751953,
2010-10-14, 02:15:05,VALID,916.286,VALID,0,VALID,94.2635,VALID,0,VALID,19.4103,VALID,33,VALID,1.71094,
2010-10-14, 02:16:05,VALID,916.298,VALID,0,VALID,94.0882,VALID,0,VALID,19.4298,VALID,3,VALID,1.42266,
2010-10-14, 02:17:05,VALID,916.309,VALID,0,VALID,93.9357,VALID,0,VALID,19.4478,VALID,14,VALID,1.18555,
2010-10-14, 02:18:05,VALID,916.339,VALID,0,VALID,93.8519,VALID,0,VALID,19.4673,VALID,15,VALID,0.865625,
2010-10-14, 02:19:05,VALID,916.316,VALID,0,VALID,93.8671,VALID,0,VALID,19.4688,VALID,15,VALID,0.482031,
2010-10-14, 02:20:05,VALID,916.312,VALID,0,VALID,94.0043,VALID,0,VALID,19.5078,VALID,15,VALID,0.479297,
2010-10-14, 02:21:05,VALID,916.254,VALID,0,VALID,93.9738,VALID,0,VALID,19.4868,VALID,15,VALID,0.182422,
2010-10-14, 02:22:05,VALID,916.261,VALID,0,VALID,94.0425,VALID,0,VALID,19.4688,VALID,15,VALID,0.410547,
2010-10-14, 02:23:05,VALID,916.258,VALID,0,VALID,94.1492,VALID,0,VALID,19.4493,VALID,15,VALID,0.647656,
2010-10-14, 02:24:05,VALID,916.272,VALID,0,VALID,94.2788,VALID,0,VALID,19.4103,VALID,15,VALID,0.362109,
2010-10-14, 02:25:05,VALID,916.254,VALID,0,VALID,94.2254,VALID,0,VALID,19.4103,VALID,15,VALID,0.358594,
2010-10-14, 02:26:05,VALID,916.241,VALID,0,VALID,94.3017,VALID,0,VALID,19.3893,VALID,14,VALID,0.0382813,
2010-10-14, 02:27:05,VALID,916.229,VALID,0,VALID,94.3093,VALID,0,VALID,19.3698,VALID,15,VALID,0.119922,
2010-10-14, 02:28:05,VALID,916.237,VALID,0,VALID,94.4084,VALID,0,VALID,19.3503,VALID,15,VALID,0.969531,
2010-10-14, 02:29:05,VALID,916.27,VALID,0,VALID,94.3321,VALID,0,VALID,19.3908,VALID,15,VALID,0.845312,
2010-10-14, 02:30:05,VALID,916.248,VALID,0,VALID,94.355,VALID,0,VALID,19.3698,VALID,15,VALID,1.66094,
2010-10-14, 02:31:05,VALID,916.277,VALID,0,VALID,94.1111,VALID,0,VALID,19.4298,VALID,15,VALID,0.910156,
2010-10-14, 02:32:05,VALID,916.266,VALID,0,VALID,93.9891,VALID,0,VALID,19.4478,VALID,15,VALID,0.804688,
2010-10-14, 02:33:05,VALID,916.281,VALID,0,VALID,93.9052,VALID,0,VALID,19.4673,VALID,15,VALID,0.725,
2010-10-14, 02:34:05,VALID,916.266,VALID,0,VALID,94.0272,VALID,0,VALID,19.4673,VALID,14,VALID,0.589063,
2010-10-14, 02:35:05,VALID,916.266,VALID,0,VALID,94.0882,VALID,0,VALID,19.4673,VALID,15,VALID,0.753516,
2010-10-14, 02:36:05,VALID,916.269,VALID,0,VALID,94.233,VALID,0,VALID,19.4688,VALID,15,VALID,0.683203,
2010-10-14, 02:37:05,VALID,916.309,VALID,0,VALID,94.3093,VALID,0,VALID,19.4298,VALID,15,VALID,0.432422,
2010-10-14, 02:38:05,VALID,916.281,VALID,0,VALID,94.477,VALID,0,VALID,19.3908,VALID,15,VALID,0.440234,
2010-10-14, 02:39:05,VALID,916.228,VALID,0,VALID,94.6905,VALID,0,VALID,19.3518,VALID,15,VALID,1.00703,
2010-10-14, 02:40:05,VALID,916.233,VALID,0,VALID,94.8505,VALID,0,VALID,19.3113,VALID,15,VALID,0.851563,
2010-10-14, 02:41:05,VALID,916.194,VALID,0,VALID,94.9192,VALID,0,VALID,19.2918,VALID,15,VALID,0.619531,
2010-10-14, 02:42:05,VALID,916.209,VALID,0,VALID,94.8582,VALID,0,VALID,19.2918,VALID,15,VALID,0,
2010-10-14, 02:43:05,VALID,916.187,VALID,0,VALID,94.7286,VALID,0,VALID,19.2933,VALID,14,VALID,0.0191406,
2010-10-14, 02:44:05,VALID,916.167,VALID,0,VALID,94.7972,VALID,0,VALID,19.2528,VALID,15,VALID,0.272656,
2010-10-14, 02:45:05,VALID,916.177,VALID,0,VALID,94.7819,VALID,0,VALID,19.2543,VALID,15,VALID,0.346875,
2010-10-14, 02:46:05,VALID,916.114,VALID,0,VALID,94.7286,VALID,0,VALID,19.1944,VALID,15,VALID,0.730078,
2010-10-14, 02:47:05,VALID,916.13,VALID,0,VALID,95.1174,VALID,0,VALID,19.2153,VALID,16,VALID,1.03086,
2010-10-14, 02:48:05,VALID,916.159,VALID,0,VALID,95.1097,VALID,0,VALID,19.1749,VALID,19,VALID,0.496484,
2010-10-14, 02:49:05,VALID,916.164,VALID,0,VALID,95.0945,VALID,0,VALID,19.1958,VALID,19,VALID,0,
2010-10-14, 02:50:05,VALID,916.129,VALID,0,VALID,95.0106,VALID,0,VALID,19.1554,VALID,19,VALID,0.416797,
2010-10-14, 02:51:05,VALID,916.117,VALID,0,VALID,94.8582,VALID,0,VALID,19.1568,VALID,19,VALID,0.316016,
2010-10-14, 02:52:05,VALID,916.105,VALID,0,VALID,95.0183,VALID,0,VALID,19.1373,VALID,19,VALID,0.764063,
2010-10-14, 02:53:05,VALID,916.159,VALID,0,VALID,95.2546,VALID,0,VALID,19.1568,VALID,19,VALID,0.945703,
2010-10-14, 02:54:05,VALID,916.151,VALID,0,VALID,95.1021,VALID,0,VALID,19.1749,VALID,19,VALID,0.869922,
2010-10-14, 02:55:05,VALID,916.139,VALID,0,VALID,94.9192,VALID,0,VALID,19.2153,VALID,19,VALID,0.566797,
2010-10-14, 02:56:05,VALID,916.161,VALID,0,VALID,94.599,VALID,0,VALID,19.1944,VALID,19,VALID,0.461328,
2010-10-14, 02:57:05,VALID,916.16,VALID,0,VALID,94.3931,VALID,0,VALID,19.1958,VALID,19,VALID,0.3375,
2010-10-14, 02:58:05,VALID,916.161,VALID,0,VALID,94.2026,VALID,0,VALID,19.1359,VALID,19,VALID,0.400391,
2010-10-14, 02:59:05,VALID,916.141,VALID,0,VALID,94.3398,VALID,0,VALID,19.0969,VALID,19,VALID,0.166797,
2010-10-14, 03:00:05,VALID,916.125,VALID,0,VALID,94.5227,VALID,0,VALID,19.0788,VALID,19,VALID,0,
2010-10-14, 03:01:05,VALID,916.128,VALID,0,VALID,94.7438,VALID,0,VALID,19.0384,VALID,19,VALID,0.000390625,
2010-10-14, 03:02:05,VALID,916.113,VALID,0,VALID,94.7972,VALID,0,VALID,19.0189,VALID,19,VALID,0.0972656,
2010-10-14, 03:03:05,VALID,916.079,VALID,0,VALID,94.8734,VALID,0,VALID,18.9994,VALID,19,VALID,0.00664063,
2010-10-14, 03:04:05,VALID,916.108,VALID,0,VALID,95.0106,VALID,0,VALID,19.0008,VALID,19,VALID,0.210547,
2010-10-14, 03:05:05,VALID,916.099,VALID,0,VALID,94.8658,VALID,0,VALID,18.9604,VALID,19,VALID,0.0433594,
2010-10-14, 03:06:05,VALID,916.068,VALID,0,VALID,94.8658,VALID,0,VALID,18.9214,VALID,19,VALID,0.242188,
2010-10-14, 03:07:05,VALID,916.048,VALID,0,VALID,95.1174,VALID,0.107441,VALID,18.9424,VALID,19,VALID,0.313672,
2010-10-14, 03:08:05,VALID,916.116,VALID,0,VALID,95.2317,VALID,0,VALID,18.9424,VALID,19,VALID,0.0308594,
2010-10-14, 03:09:05,VALID,916.126,VALID,0,VALID,95.1479,VALID,0.107441,VALID,18.9019,VALID,19,VALID,0,
2010-10-14, 03:10:05,VALID,916.059,VALID,0,VALID,95.1555,VALID,0.107441,VALID,18.8629,VALID,19,VALID,0.16875,
2010-10-14, 03:11:05,VALID,915.997,VALID,0,VALID,95.3156,VALID,0,VALID,18.9229,VALID,19,VALID,0.542188,
2010-10-14, 03:12:05,VALID,916.023,VALID,0,VALID,95.2622,VALID,0,VALID,18.9229,VALID,169,VALID,0.622656,
2010-10-14, 03:13:05,VALID,916.054,VALID,0,VALID,95.2393,VALID,0,VALID,18.9424,VALID,210,VALID,0.808203,
2010-10-14, 03:14:05,VALID,916.088,VALID,0,VALID,94.7209,VALID,0,VALID,19.0189,VALID,263,VALID,0.832422,
2010-10-14, 03:15:05,VALID,916.045,VALID,0,VALID,94.1644,VALID,0,VALID,19.0593,VALID,263,VALID,1.03242,
2010-10-14, 03:16:05,VALID,916.043,VALID,0,VALID,94.0958,VALID,0.107441,VALID,19.0593,VALID,256,VALID,0.583984,
2010-10-14, 03:17:05,VALID,916.098,VALID,0,VALID,94.0882,VALID,0,VALID,19.0579,VALID,256,VALID,1.03125,
2010-10-14, 03:18:05,VALID,916.074,VALID,0,VALID,94.1721,VALID,0,VALID,19.1178,VALID,219,VALID,0.976563,
2010-10-14, 03:19:05,VALID,916.107,VALID,0,VALID,93.8519,VALID,0,VALID,19.2738,VALID,249,VALID,0.607031,
2010-10-14, 03:20:05,VALID,916.087,VALID,0,VALID,93.1048,VALID,0,VALID,19.3518,VALID,249,VALID,0.242578,
2010-10-14, 03:21:05,VALID,916.118,VALID,0,VALID,92.5711,VALID,0,VALID,19.3698,VALID,249,VALID,0.480859,
2010-10-14, 03:22:05,VALID,916.13,VALID,0,VALID,92.5406,VALID,0,VALID,19.3698,VALID,249,VALID,0.382813,
2010-10-14, 03:23:05,VALID,916.098,VALID,0,VALID,92.7389,VALID,0,VALID,19.3908,VALID,249,VALID,0.801953,
2010-10-14, 03:24:05,VALID,916.084,VALID,0,VALID,92.7312,VALID,0,VALID,19.4103,VALID,244,VALID,1.38555,
2010-10-14, 03:25:05,VALID,916.092,VALID,0,VALID,91.885,VALID,0,VALID,19.5858,VALID,241,VALID,1.03984,
2010-10-14, 03:26:05,VALID,916.077,VALID,0,VALID,90.8254,VALID,0,VALID,19.7808,VALID,266,VALID,0.928906,
2010-10-14, 03:27:05,VALID,916.043,VALID,0,VALID,89.9487,VALID,0,VALID,19.9563,VALID,295,VALID,1.21445,
2010-10-14, 03:28:05,VALID,916.031,VALID,0,VALID,89.5446,VALID,0,VALID,19.9953,VALID,300,VALID,0.321094,
2010-10-14, 03:29:05,VALID,916.071,VALID,0,VALID,89.1635,VALID,0,VALID,20.0343,VALID,300,VALID,1.00078,
2010-10-14, 03:30:05,VALID,916.088,VALID,0,VALID,88.7823,VALID,0,VALID,20.0523,VALID,264,VALID,1.86563,
2010-10-14, 03:31:05,VALID,916.03,VALID,0,VALID,88.2944,VALID,0,VALID,20.1318,VALID,268,VALID,0.364062,
2010-10-14, 03:32:05,VALID,916.045,VALID,0,VALID,88.0962,VALID,0,VALID,20.1708,VALID,274,VALID,0.912109,
2010-10-14, 03:33:05,VALID,916.056,VALID,0,VALID,87.6998,VALID,0,VALID,20.2083,VALID,252,VALID,1.12031,
2010-10-14, 03:34:05,VALID,916.078,VALID,0,VALID,87.2652,VALID,0,VALID,20.3074,VALID,258,VALID,2.15039,
2010-10-14, 03:35:05,VALID,916.055,VALID,0,VALID,86.5639,VALID,0,VALID,20.3838,VALID,272,VALID,1.58555,
2010-10-14, 03:36:05,VALID,916.069,VALID,0,VALID,86.3428,VALID,0,VALID,20.4813,VALID,235,VALID,1.4418,
2010-10-14, 03:37:05,VALID,916.067,VALID,0,VALID,86.48,VALID,0,VALID,20.5024,VALID,256,VALID,0.553906,
2010-10-14, 03:38:05,VALID,916.085,VALID,0,VALID,86.8536,VALID,0,VALID,20.4634,VALID,256,VALID,0.973828,
2010-10-14, 03:39:05,VALID,916.08,VALID,0,VALID,87.5168,VALID,0,VALID,20.3074,VALID,256,VALID,0.241406,
2010-10-14, 03:40:05,VALID,916.058,VALID,0,VALID,87.9895,VALID,0,VALID,20.2293,VALID,15,VALID,1.01719,
2010-10-14, 03:41:05,VALID,916.04,VALID,0,VALID,88.2487,VALID,0,VALID,20.1318,VALID,15,VALID,0.487891,
2010-10-14, 03:42:05,VALID,916.043,VALID,0,VALID,89.0644,VALID,0,VALID,20.0328,VALID,15,VALID,0.859375,
2010-10-14, 03:43:05,VALID,916.034,VALID,0,VALID,89.842,VALID,0,VALID,19.9758,VALID,15,VALID,0.873828,
2010-10-14, 03:44:05,VALID,916.021,VALID,0,VALID,89.5599,VALID,0,VALID,19.9173,VALID,15,VALID,0.284766,
2010-10-14, 03:45:05,VALID,916.031,VALID,0,VALID,89.5828,VALID,0,VALID,19.8963,VALID,268,VALID,0.340234,